[[{"header":{"parameterUnit":"m.s-1","parameterCategory":1,"la1":30.2991,"la2":30.254,"lo1":-89.0895,"lo2":-89.0444,"dy":0.0017,"dx":0.0017,"nx":28,"ny":28,"refTime":"2025-03-28T21:00:00:Z","depth":0,"parameterNumber":2,"parameterNumberName":"U-component_of_WINDS"},"data":[0,0,0,0,0,0,0,0,0,0,0,0,0,0,0,0,0,0,0,0,0,0,0,0,0,0,0,0,0,0,0,0,0,0,0,0,0,0,0,0,0,0,0,0,0,0,0,0,0,0,0,0,0,0,0,0,0,0,-7.0772,-7.0771,0,-7.0684,-7.0683,-7.0682,-7.0535,-7.0532,-7.0529,-7.0527,-7.0438,-7.0438,-7.0438,0,0,0,0,0,0,0,0,0,0,0,0,0,-7.0814,-7.0814,-7.0772,-7.0771,-7.077,-7.0684,-7.0683,-7.0682,-7.0535,-7.0532,-7.0529,-7.0525,-7.0438,-7.0438,-7.0438,0,0,0,0,0,0,0,0,0,0,0,0,0,-7.0768,-7.0814,-7.0772,-7.0686,-7.0677,-7.0684,-7.0683,-7.0681,-7.0536,-7.0532,-7.0528,-7.0524,-7.0438,-7.0438,-7.0438,-7.0522,0,0,-7.0439,-7.0439,0,0,0,0,0,0,0,0,-7.0771,-7.0767,-7.07,-7.0692,-7.0682,-7.0616,-7.0665,-7.0628,-7.0537,-7.059,-7.0527,-7.0522,-7.0501,-7.0495,-7.0488,-7.0518,-7.0514,-7.0439,-7.0439,-7.0439,-7.044,0,0,0,0,0,0,0,-7.0774,-7.0769,-7.0737,-7.0699,-7.0688,-7.0652,-7.0641,-7.0657,-7.0569,-7.0585,-7.0574,-7.0565,-7.0495,-7.0488,-7.0485,-7.0513,-7.0439,-7.0439,-7.044,-7.044,-7.0606,-7.061,0,0,0,0,0,0,-7.079,-7.0773,-7.074,-7.0734,-7.0717,-7.0655,-7.0643,-7.0642,-7.0569,-7.0554,-7.0569,-7.0559,-7.049,-7.0485,-7.0481,-7.0572,-7.0439,-7.044,-7.044,-7.0602,-7.0607,-7.0611,0,0,0,0,0,0,-7.0791,-7.0788,-7.0743,-7.0751,-7.0742,-7.0659,-7.0659,-7.0642,-7.0635,-7.0557,-7.054,-7.0578,-7.0486,-7.0481,-7.0513,-7.0567,-7.044,-7.044,-7.0597,-7.0603,-7.0609,-7.0756,0,0,0,0,0,0,-7.0793,-7.079,-7.082,-7.0753,-7.0742,-7.0776,-7.0662,-7.0643,-7.0635,-7.0621,-7.0561,-7.0547,-7.0483,-7.0513,-7.0513,-7.0565,-7.044,-7.0591,-7.06,-7.0607,-7.0746,-7.0767,-7.0785,0,0,0,0,0,-7.0795,-7.0865,-7.0822,-7.0819,-7.0779,-7.0779,-7.0774,-7.0698,-7.0641,-7.067,-7.0621,-7.0549,-7.0563,-7.0518,-7.0516,-7.0569,-7.0587,-7.0597,-7.0607,-7.0737,-7.0763,-7.0784,0,0,0,0,0,0,-7.0941,-7.0855,-7.0806,-7.0856,-7.0827,-7.0755,-7.0789,-7.0728,-7.0713,-7.0701,-7.0608,-7.0596,-7.0639,-7.0608,-7.056,-7.0646,-7.0564,-7.0574,-7.0664,-7.0687,-7.0706,-7.071,-7.0441,0,0,0,0,0,-7.098,-7.0987,-7.0911,-7.0963,-7.0951,-7.0874,-7.0871,-7.0816,-7.0781,-7.0767,-7.072,-7.0689,-7.0686,-7.0686,-7.0679,-7.0743,-7.0726,-7.0779,-7.0798,-7.0814,-7.0822,-7.0851,-7.0873,-7.0643,-7.0643,-7.0643,0,0,-7.1058,-7.1012,-7.1022,-7.0992,-7.0961,-7.0971,-7.0864,-7.0879,-7.0884,-7.077,-7.0795,-7.0761,-7.072,-7.0768,-7.0787,-7.0743,-7.0883,-7.0827,-7.084,-7.0839,-7.0864,-7.0885,-7.0905,-7.0649,-7.0648,-7.0647,0,0,-7.1205,-7.1172,-7.121,-7.1183,-7.1139,-7.1088,-7.1098,-7.1036,-7.1007,-7.1033,-7.0946,-7.0953,-7.0951,-7.0924,-7.0911,-7.1051,-7.0984,-7.1052,-7.1151,-7.1181,-7.1199,-7.1214,-7.1261,-7.1279,-7.1062,-7.1062,-7.1062,0,-7.1307,-7.1317,-7.1238,-7.1258,-7.1246,-7.1144,-7.1182,-7.116,-7.1117,-7.1111,-7.1064,-7.1058,-7.1024,-7.1063,-7.1098,-7.1092,-7.1098,-7.1056,-7.1203,-7.1217,-7.1231,-7.1274,-7.1292,-7.107,-7.1069,-7.1069,-7.1068,0,-7.1444,-7.1454,-7.149,-7.145,-7.1444,-7.1473,-7.1398,-7.1402,-7.1348,-7.1302,-7.1329,-7.1285,-7.1267,-7.1273,-7.1222,-7.1305,-7.1279,-7.122,-7.1134,-7.1262,-7.1301,-7.1317,-7.1082,-7.1079,-7.1077,-7.1075,0,0,-7.1675,-7.1593,-7.1607,-7.1587,-7.1533,-7.1539,-7.1565,-7.1546,-7.1549,-7.1525,-7.1542,-7.1544,-7.1488,-7.1473,-7.1418,-7.1445,-7.1555,-7.1381,-7.1378,-7.1411,-7.1641,-7.1683,-7.1703,-7.1513,-7.1516,-7.1518,-7.1643,0,-7.1807,-7.1844,-7.1774,-7.1827,-7.1834,-7.1739,-7.1761,-7.173,-7.1689,-7.1689,-7.1644,-7.1644,-7.1572,-7.1562,-7.1585,-7.1537,-7.1599,-7.1528,-7.1525,-7.1526,-7.1533,-7.1724,-7.1768,-7.1888,-7.1658,-7.1661,-7.1663,0,-7.1964,-7.1946,-7.2,-7.1942,-7.1943,-7.1963,-7.1941,-7.1943,-7.1907,-7.1875,-7.186,-7.1795,-7.1816,-7.1738,-7.1764,-7.1717,-7.1713,-7.169,-7.1693,-7.1685,-7.1598,-7.1717,-7.1925,-7.1941,-7.1686,-7.1685,-7.1683,0,-7.2122,-7.2113,-7.2143,-7.213,-7.2064,-7.2081,-7.2054,-7.2014,-7.2008,-7.199,-7.1984,-7.197,-7.196,-7.195,-7.1883,-7.1834,-7.1917,-7.1834,-7.1889,-7.189,-7.1906,-7.1905,-7.2111,-7.1913,-7.1912,-7.1912,-7.1912,0,-7.2273,-7.2309,-7.2212,-7.223,-7.2268,-7.2189,-7.2229,-7.2193,-7.2159,-7.2168,-7.2088,-7.2098,-7.2012,-7.2013,-7.1962,-7.199,-7.1988,-7.1961,-7.1946,-7.1965,-7.1968,-7.1957,-7.1945,-7.1917,-7.1916,-7.1915,-7.1914,0,-7.2453,-7.2391,-7.2416,-7.2354,-7.2339,-7.2369,-7.2314,-7.2328,-7.2284,-7.2297,-7.2295,-7.2225,-7.2222,-7.2157,-7.2141,-7.2106,-7.2153,-7.2126,-7.2165,-7.2154,-7.2211,-7.2205,-7.2412,-7.2434,-7.2228,-7.223,-7.2232,0,-7.2551,-7.2576,-7.2516,-7.2516,-7.2494,-7.2496,-7.2489,-7.2414,-7.241,-7.2372,-7.2391,-7.2382,-7.237,-7.2371,-7.2318,-7.2305,-7.2273,-7.2348,-7.227,-7.2289,-7.2269,-7.2266,-7.2267,-7.2362,-7.2365,-7.2367,-7.2368,0,-7.273,-7.2698,-7.2691,-7.2674,-7.2668,-7.2651,-7.2628,-7.2634,-7.2552,-7.2552,-7.2548,-7.254,-7.2523,-7.2515,-7.2493,-7.2465,-7.2403,-7.2394,-7.2405,-7.2422,-7.2442,-7.2427,-7.2204,-7.2388,-7.2386,-7.2385,-7.2384,-7.2383,-7.2868,-7.2885,-7.2845,-7.284,-7.2816,-7.2798,-7.2807,-7.2764,-7.276,-7.274,-7.2698,-7.27,-7.2664,-7.2628,-7.2607,-7.2608,-7.257,-7.2587,-7.259,-7.2594,-7.2604,-7.2447,-7.2604,-7.2604,-7.2603,-7.2602,-7.2602,0,-7.3038,-7.3009,-7.3005,-7.2977,-7.2973,-7.2917,-7.289,-7.289,-7.2894,-7.2866,-7.2856,-7.2852,-7.2844,-7.2792,-7.2777,-7.2788,-7.2759,-7.2786,-7.2782,-7.2776,-7.264,-7.263,-7.281,-7.281,-7.281,-7.281,-7.281,-7.281,-7.3126,-7.3151,-7.3115,-7.3128,-7.3098,-7.31,-7.3089,-7.3071,-7.3048,-7.3047,-7.304,-7.3006,-7.2968,-7.2951,-7.2941,-7.2926,-7.2922,-7.2959,-7.2934,-7.2806,-7.2786,-7.2767,-7.2756,-7.296,-7.296,-7.3068,-7.3069,-7.307]},{"header":{"parameterUnit":"m.s-1","parameterCategory":1,"la1":30.2991,"la2":30.254,"lo1":-89.0895,"lo2":-89.0444,"dy":0.0017,"dx":0.0017,"nx":28,"ny":28,"refTime":"2025-03-28T21:00:00:Z","depth":0,"parameterNumber":3,"parameterNumberName":"V-component_of_WINDS"},"data":[0,0,0,0,0,0,0,0,0,0,0,0,0,0,0,0,0,0,0,0,0,0,0,0,0,0,0,0,0,0,0,0,0,0,0,0,0,0,0,0,0,0,0,0,0,0,0,0,0,0,0,0,0,0,0,0,0,0,1.555,1.555,0,1.5559,1.5559,1.5559,1.5576,1.5576,1.5577,1.5577,1.5583,1.5583,1.5583,0,0,0,0,0,0,0,0,0,0,0,0,0,1.5548,1.5548,1.555,1.555,1.555,1.5559,1.5559,1.5559,1.5576,1.5576,1.5577,1.5577,1.5583,1.5583,1.5583,0,0,0,0,0,0,0,0,0,0,0,0,0,1.5552,1.5548,1.555,1.556,1.5561,1.5559,1.5559,1.5559,1.5576,1.5576,1.5577,1.5577,1.5583,1.5583,1.5583,1.5571,0,0,1.5582,1.5582,0,0,0,0,0,0,0,0,1.5552,1.5552,1.5558,1.5559,1.556,1.5567,1.5561,1.5563,1.5576,1.557,1.5577,1.5577,1.5577,1.5577,1.5578,1.5571,1.5572,1.5582,1.5582,1.5582,1.5582,0,0,0,0,0,0,0,1.5552,1.5552,1.5553,1.5558,1.556,1.5564,1.5565,1.5561,1.557,1.5571,1.5572,1.5573,1.5578,1.5578,1.5578,1.5572,1.5582,1.5582,1.5582,1.5582,1.556,1.5559,0,0,0,0,0,0,1.555,1.5552,1.5553,1.5554,1.5557,1.5563,1.5565,1.5564,1.5571,1.5572,1.5572,1.5573,1.5578,1.5578,1.5578,1.5568,1.5582,1.5582,1.5582,1.556,1.556,1.5559,0,0,0,0,0,0,1.555,1.555,1.5553,1.5553,1.5554,1.5563,1.5562,1.5564,1.5564,1.5572,1.5574,1.5571,1.5579,1.5579,1.5574,1.5568,1.5582,1.5581,1.5561,1.556,1.556,1.5544,0,0,0,0,0,0,1.555,1.555,1.5545,1.5553,1.5554,1.5548,1.5562,1.5564,1.5564,1.5566,1.5571,1.5572,1.5579,1.5574,1.5574,1.5568,1.5581,1.5561,1.5561,1.556,1.5545,1.5543,1.5541,0,0,0,0,0,1.555,1.5539,1.5545,1.5545,1.5548,1.5548,1.5548,1.5557,1.5564,1.556,1.5565,1.5572,1.5569,1.5573,1.5573,1.5567,1.5562,1.5561,1.556,1.5546,1.5543,1.5541,0,0,0,0,0,0,1.5529,1.554,1.5547,1.5539,1.5542,1.555,1.5545,1.5553,1.5554,1.5555,1.5565,1.5566,1.5561,1.5563,1.5568,1.5558,1.5567,1.5565,1.5556,1.5554,1.5552,1.5551,1.5581,0,0,0,0,0,1.5524,1.5523,1.5533,1.5524,1.5526,1.5536,1.5535,1.5542,1.5546,1.5547,1.5552,1.5555,1.5555,1.5554,1.5554,1.5546,1.5548,1.5542,1.554,1.5538,1.5537,1.5535,1.5533,1.5556,1.5556,1.5556,0,0,1.5513,1.5519,1.5517,1.5521,1.5524,1.5523,1.5536,1.5534,1.5534,1.5546,1.5543,1.5547,1.5551,1.5545,1.5543,1.5547,1.5532,1.5537,1.5535,1.5535,1.5534,1.5532,1.553,1.5555,1.5556,1.5556,0,0,1.5492,1.5496,1.5491,1.5495,1.5501,1.5508,1.5507,1.5515,1.5518,1.5515,1.5526,1.5525,1.5524,1.5528,1.5529,1.5514,1.5521,1.5513,1.5503,1.5501,1.5499,1.5498,1.5494,1.5492,1.5512,1.5512,1.5512,0,1.5477,1.5476,1.5487,1.5485,1.5487,1.5501,1.5497,1.55,1.5505,1.5506,1.5512,1.5513,1.5516,1.5513,1.5509,1.5509,1.551,1.5513,1.5499,1.5497,1.5496,1.5492,1.5491,1.5511,1.5511,1.5512,1.5512,0,1.5459,1.5458,1.5453,1.5461,1.5462,1.5459,1.547,1.547,1.5477,1.5484,1.5482,1.5487,1.549,1.5489,1.5495,1.5487,1.549,1.5497,1.5506,1.5493,1.549,1.5488,1.551,1.551,1.5511,1.5511,0,0,1.5424,1.5439,1.5437,1.5442,1.5451,1.5451,1.5449,1.5453,1.5454,1.5458,1.5458,1.5458,1.5466,1.5467,1.5474,1.5473,1.5463,1.548,1.548,1.5478,1.5456,1.5452,1.545,1.5468,1.5467,1.5467,1.5457,0,1.5406,1.5404,1.5416,1.5411,1.5412,1.5426,1.5425,1.5431,1.5438,1.544,1.5447,1.5448,1.5456,1.5458,1.5457,1.5464,1.5459,1.5465,1.5468,1.5468,1.5467,1.5448,1.5443,1.5432,1.5455,1.5455,1.5455,0,1.5384,1.539,1.5386,1.5398,1.5399,1.5398,1.5404,1.5405,1.5413,1.5418,1.5422,1.5431,1.5431,1.5439,1.544,1.5444,1.5447,1.5451,1.545,1.5451,1.5461,1.5449,1.5429,1.5427,1.5453,1.5453,1.5453,0,1.5362,1.5367,1.5367,1.537,1.5383,1.5383,1.5388,1.5397,1.5399,1.5405,1.5407,1.5411,1.5414,1.5418,1.5428,1.5433,1.5429,1.5438,1.5433,1.5433,1.5432,1.5432,1.5412,1.5432,1.5432,1.5432,1.5432,0,1.5341,1.5339,1.5357,1.5357,1.5355,1.5368,1.5366,1.5373,1.5381,1.5383,1.5395,1.5396,1.5409,1.5412,1.542,1.5421,1.5421,1.5426,1.5428,1.5425,1.5425,1.5427,1.5428,1.5431,1.5431,1.5431,1.5432,0,1.5315,1.5327,1.5328,1.5342,1.5345,1.5344,1.5356,1.5356,1.5365,1.5367,1.5368,1.5381,1.5385,1.5396,1.5403,1.5408,1.5407,1.5411,1.5405,1.5407,1.5402,1.5403,1.5384,1.5383,1.5402,1.5402,1.5402,0,1.5302,1.5301,1.5315,1.5318,1.5324,1.5327,1.5331,1.5345,1.5348,1.5358,1.5358,1.5364,1.5369,1.5375,1.5385,1.5391,1.5395,1.5389,1.5396,1.5394,1.5397,1.5397,1.5398,1.5387,1.5386,1.5386,1.5386,0,1.5278,1.5284,1.5289,1.5297,1.5302,1.5308,1.5316,1.5317,1.5332,1.5336,1.5341,1.5346,1.5354,1.536,1.5368,1.5374,1.5383,1.5384,1.5383,1.538,1.5378,1.5381,1.5401,1.5384,1.5384,1.5384,1.5384,1.5384,1.5259,1.5259,1.5271,1.5276,1.5284,1.5291,1.5293,1.5303,1.5308,1.5317,1.5324,1.533,1.5339,1.5351,1.5357,1.5361,1.5366,1.5365,1.5364,1.5364,1.5364,1.5377,1.5363,1.5363,1.5363,1.5363,1.5363,0,1.5236,1.5245,1.525,1.5261,1.5266,1.5276,1.5285,1.5289,1.5293,1.5302,1.5308,1.5316,1.5322,1.5334,1.5341,1.5343,1.5347,1.5344,1.5345,1.5346,1.5358,1.5359,1.5341,1.5341,1.5341,1.5341,1.5341,1.5341,1.5225,1.5228,1.5236,1.5243,1.5251,1.5258,1.5262,1.527,1.5277,1.5285,1.5291,1.5299,1.531,1.5319,1.5325,1.5329,1.5331,1.5327,1.5332,1.5343,1.5345,1.5347,1.5347,1.5328,1.5327,1.532,1.5319,1.5319]}]]